TimeMST,TemperatureF,Dew PointF,Humidity,Sea Level PressureIn,VisibilityMPH,Wind Direction,Wind SpeedMPH,Gust SpeedMPH,PrecipitationIn,Events,Conditions,WindDirDegrees,DateUTC
12:53 AM,35.1,26.1,70,30.26,10.0,NNW,6.9,-,N/A,,Clear,330,2012-11-05 07:53:00
1:53 AM,42.1,26.1,53,30.22,10.0,WSW,8.1,-,N/A,,Clear,240,2012-11-05 08:53:00
2:53 AM,39.9,26.1,58,30.22,10.0,SSE,3.5,-,N/A,,Clear,150,2012-11-05 09:53:00
3:53 AM,39.9,26.1,58,30.21,10.0,SSW,3.5,-,N/A,,Clear,200,2012-11-05 10:53:00
4:53 AM,39.0,26.1,60,30.22,10.0,NNW,3.5,-,N/A,,Clear,340,2012-11-05 11:53:00
5:53 AM,37.0,26.1,65,30.22,10.0,Calm,Calm,-,N/A,,Clear,0,2012-11-05 12:53:00
6:53 AM,37.0,26.1,65,30.22,10.0,NNW,4.6,-,N/A,,Clear,330,2012-11-05 13:53:00
7:53 AM,37.0,27.0,67,30.26,10.0,NNW,6.9,-,N/A,,Clear,330,2012-11-05 14:53:00
8:53 AM,41.0,30.0,65,30.25,10.0,East,5.8,-,N/A,,Clear,100,2012-11-05 15:53:00
9:53 AM,48.9,30.0,48,30.21,10.0,East,4.6,-,N/A,,Clear,100,2012-11-05 16:53:00
10:53 AM,55.9,30.9,39,30.17,10.0,ESE,5.8,-,N/A,,Clear,120,2012-11-05 17:53:00
11:53 AM,61.0,27.0,27,30.13,10.0,Calm,Calm,-,N/A,,Clear,0,2012-11-05 18:53:00
12:53 PM,62.1,27.0,26,30.11,10.0,Variable,3.5,-,N/A,,Clear,0,2012-11-05 19:53:00
1:53 PM,64.9,27.0,24,30.06,10.0,East,3.5,-,N/A,,Clear,100,2012-11-05 20:53:00
2:53 PM,66.0,27.0,23,30.05,10.0,SSE,5.8,-,N/A,,Clear,160,2012-11-05 21:53:00
3:53 PM,62.1,28.9,29,30.08,10.0,SE,6.9,-,N/A,,Clear,140,2012-11-05 22:53:00
4:53 PM,59.0,27.0,29,30.09,10.0,SW,6.9,-,N/A,,Clear,220,2012-11-05 23:53:00
5:53 PM,59.0,27.0,29,30.12,10.0,Calm,Calm,-,N/A,,Clear,0,2012-11-06 00:53:00
6:53 PM,55.9,27.0,33,30.14,10.0,Calm,Calm,-,N/A,,Clear,0,2012-11-06 01:53:00
7:53 PM,53.1,28.0,38,30.17,10.0,Calm,Calm,-,N/A,,Clear,0,2012-11-06 02:53:00
8:53 PM,51.1,28.9,43,30.17,10.0,SE,4.6,-,N/A,,Clear,130,2012-11-06 03:53:00
9:53 PM,57.0,21.9,26,30.12,10.0,NNW,11.5,-,N/A,,Clear,330,2012-11-06 04:53:00
10:53 PM,60.1,17.1,19,30.08,10.0,NW,9.2,17.3,N/A,,Clear,310,2012-11-06 05:53:00
11:53 PM,55.0,21.9,28,30.10,10.0,East,4.6,-,N/A,,Clear,80,2012-11-06 06:53:00